Location: Caltech
(34.1382°N, 118.1253°W)
Time: 19:56:42
(UTC-07:00)

NOSS 3-2 (A) - Visible Passes

Search period start: 20 April 2015 00:00
Search period end: 30 April 2015 00:00
Orbit: 928 x 1280 km, 63.4° (Epoch: 20 April)

Date Brightness Start Highest point End Pass type
(mag) Time Alt. Az. Time Alt. Az. Time Alt. Az.
20 Apr 5.4 00:19:51 24° N 00:19:51 24° N 00:22:53 10° NNE visible
20 Apr 5.3 23:35:06 25° NNE 23:35:06 25° NNE 23:37:49 10° NNE visible
21 Apr 6.0 01:22:25 11° NW 01:23:51 12° NNW 01:26:06 10° NNW visible
21 Apr 5.2 22:50:11 23° NE 22:50:11 23° NE 22:52:31 10° NNE visible
22 Apr 5.7 00:37:29 18° NW 00:37:46 18° NW 00:42:07 10° N visible
22 Apr 5.2 22:05:02 20° NE 22:05:02 20° NE 22:06:56 10° NE visible
22 Apr 5.2 23:52:19 28° NW 23:52:19 28° NW 23:57:29 10° N visible
23 Apr 6.5 05:32:02 10° N 05:35:44 15° NE 05:39:54 10° ENE visible
23 Apr 5.2 21:19:28 15° ENE 21:19:28 15° ENE 21:20:55 10° NE visible
23 Apr 4.4 23:06:42 45° NW 23:06:42 45° NW 23:12:32 10° NNE visible
24 Apr 5.2 20:33:02 11° E 20:33:02 11° E 20:33:48 10° ENE visible
24 Apr 3.5 22:20:10 70° WSW 22:20:47 77° WNW 22:27:22 10° NNE visible
25 Apr 6.1 00:09:26 10° WNW 00:12:59 15° NW 00:16:23 10° N visible
25 Apr 3.4 21:29:29 10° SSW 21:35:31 63° ESE 21:41:57 10° NE visible
25 Apr 5.6 23:22:06 10° W 23:27:00 22° NW 23:32:00 10° N visible
26 Apr 6.4 05:06:16 10° N 05:10:59 18° NE 05:16:11 10° E visible
26 Apr 3.9 20:44:57 10° S 20:50:23 35° ESE 20:56:12 10° NE visible
26 Apr 4.9 22:35:33 10° WSW 22:41:13 35° NW 22:47:11 10° NNE visible
27 Apr 6.7 04:22:21 10° NNE 04:24:51 12° NNE 04:27:46 10° NE visible
27 Apr 4.6 20:01:16 10° SSE 20:05:21 19° ESE 20:09:49 10° ENE visible
27 Apr 4.0 21:49:35 10° SW 21:55:39 58° NW 22:02:09 10° NNE visible
27 Apr 6.4 23:46:00 10° NW 23:48:15 12° NNW 23:50:15 10° NNW visible
28 Apr 5.9 05:25:25 10° NNW 05:32:01 34° NE 05:39:04 10° ESE visible
28 Apr 3.4 21:04:10 10° SSW 21:10:18 84° ESE 21:16:52 10° NNE visible
28 Apr 6.0 22:57:53 10° W 23:02:10 18° NW 23:06:24 10° N visible
29 Apr 6.4 04:40:39 10° N 04:46:11 23° NE 04:52:10 10° E visible
29 Apr 3.7 20:19:16 10° S 20:25:06 48° ESE 20:31:19 10° NE visible
29 Apr 5.5 22:10:58 10° WSW 22:16:16 28° NW 22:21:46 10° N visible
